Dosis diarias (en J/m2) de radiaci�n solar incidente en superficie.
Lugar de muestreo: Estaci�n de Fotobiolog�a Playa Uni�n (EFPU) en Playa Uni�n, Chubut, Argentina (-43.311263, -65.040969).
Datos aportados al Sistema Nacional de Datos del Mar.
Fecha,Dosis PAR,DosisUV-A,DosisUV-B
2003-01-02,8203937.4,1239062.7,33792.8
2003-01-03,11752171.1,1670124.2,43874.4
2003-01-04,8129697.2,1199031.6,31705.3
2003-01-05,11085138.9,1595668.9,41878.4
2003-01-06,11521076.5,1625567.6,43167.5
2003-01-07,9746147.1,1387762.2,36286.9
2003-01-09,10844926.2,1508163.8,38517.2
2003-01-10,10531288.7,1456957.5,36927.4
2003-01-11,9556215.0,1348742.4,34265.7
2003-01-12,9644696.6,1371241.2,36641.9
2003-01-13,10247082.6,1430083.8,38328.0
2003-01-14,9474547.1,1356669.6,36472.5
2003-01-15,10787701.9,1682091.0,47824.7
2003-01-16,9048872.2,1446110.7,40109.6
2003-01-17,10895278.4,1649171.5,41657.7
2003-01-18,9790313.6,1441075.3,38231.2
2003-01-19,10566557.6,1545857.3,39736.3
2003-01-20,10788185.0,1659460.1,44325.6
2003-01-21,7626302.2,1222180.9,32261.2
2003-01-22,8663835.8,1334553.9,33747.3
2003-01-23,9212356.0,1411521.0,37567.2
2003-01-24,7835449.3,1185992.6,30732.6
2003-01-25,11142696.6,1656525.4,44518.7
2003-01-26,8493827.1,1297010.5,35764.4
2003-01-27,9244911.1,1402748.2,37271.9
2003-01-28,6809502.4,1054590.2,27215.6
2003-01-29,5080077.0,843909.4,23200.0
2003-01-30,9386125.8,1429862.8,38106.8
2003-01-31,6242847.3,968975.2,24820.3
2003-02-01,8589823.7,1288154.9,34220.4
2003-02-02,9249268.9,1396801.9,37707.6
2003-02-03,10621985.3,1545498.2,41480.4
2003-02-04,10303813.6,1506333.3,40122.5
2003-02-05,10292581.8,1505516.6,39916.3
2003-02-06,8842352.0,1298369.8,33428.8
2003-02-07,10336494.1,1486392.5,38495.1
2003-02-08,9764784.1,1410366.4,37277.7
2003-02-09,9856204.4,1410810.6,36477.2
2003-02-10,10138011.4,1447806.1,37724.1
2003-02-11,9375681.2,1357483.1,35841.1
2003-02-12,10003415.0,1496619.5,39251.5
2003-02-13,10383027.1,1530696.6,40187.8
2003-02-14,7375979.5,1153681.7,33641.0
2003-02-15,1634980.7,301670.1,8227.1
2003-02-16,3459827.2,607323.6,16427.8
2003-02-17,9977376.0,1447758.7,36682.3
2003-02-18,7639684.9,1121254.1,27075.4
2003-02-19,2515797.7,417931.6,9774.7
2003-02-20,8157437.3,1202480.5,30940.7
2003-02-21,9778738.9,1405662.6,36463.6
2003-02-22,9606995.1,1399330.8,36480.0
2003-02-24,8850128.4,1321890.0,34186.8
2003-02-25,4358175.5,699855.5,17771.0
2003-02-26,6618949.7,1039375.3,27411.6
2003-02-27,9285811.1,1341081.3,32981.9
2003-02-28,9242536.0,1341610.5,33636.4
2003-03-01,9160579.9,1322138.9,32354.8
2003-03-02,8253715.9,1210796.7,29945.0
2003-03-03,8331231.6,1227984.3,31644.4
2003-03-04,8895219.3,1278560.0,32141.1
2003-03-05,7363655.9,1095169.4,27306.9
2003-03-06,7028455.5,1059389.1,27592.0
2003-03-07,8525524.6,1239603.4,30901.4
2003-03-08,8115211.3,1145210.0,28892.3
2003-03-09,8104726.2,1140601.9,28918.3
2003-03-10,7742394.4,1109490.1,27504.2
2003-03-11,8355750.7,1215385.2,29630.4
2003-03-12,8179233.9,1192181.5,28452.1
2003-03-13,7583203.8,1118637.6,26907.0
2003-03-14,5943170.6,896637.5,21442.3
2003-03-15,7092016.7,1032898.5,23361.9
2003-03-16,7765938.3,1107606.8,25354.6
2003-03-17,7246278.1,1078439.5,26315.5
2003-03-18,6872936.2,1029233.2,24057.1
2003-03-19,3545803.6,572564.7,13034.2
2003-03-20,7387143.6,1064117.3,23969.7
2003-03-21,3843959.8,638854.9,15793.8
2003-03-22,4936145.1,784598.4,19858.1
2003-03-23,2452962.9,427991.3,10213.5
2003-03-24,2511347.2,434397.7,10312.6
2003-03-25,5221794.5,789140.8,18042.5
2003-03-26,1380141.0,239224.3,5012.8
2003-03-31,3105205.6,500467.5,10491.3
2003-04-01,6263943.3,903990.0,19148.1
2003-04-02,5652385.0,844462.0,18180.0
2003-04-03,2041178.0,381283.8,8512.5
2003-04-04,4748932.0,711420.0,14817.1
2003-04-05,4540604.8,679347.0,14584.5
2003-04-06,5823702.7,815330.9,16019.2
2003-04-07,5649347.4,802247.7,15574.9
2003-04-08,3186120.1,480951.1,9086.3
2003-04-09,4639637.9,681804.7,12838.5
2003-04-10,3318156.9,505261.1,10343.0
2003-04-11,5344576.8,749082.1,14589.9
2003-04-12,5233449.6,727222.1,14432.4
2003-04-13,4601695.1,650091.2,12989.2
2003-04-14,4044677.4,593252.5,11611.0
2003-04-15,4999543.4,698011.6,14662.7
2003-04-16,4211455.1,608573.6,11327.7
2003-04-17,4820188.6,657625.7,11833.3
2003-04-18,4239305.2,591952.9,11816.2
2003-04-19,4721739.8,640410.2,11027.9
2003-04-20,2697702.2,421523.3,7616.7
2003-04-21,4512469.8,642364.2,10561.9
2003-04-23,3666940.7,533777.1,9199.6
2003-04-24,3360148.0,491916.0,8388.2
2003-04-25,3262844.4,476212.4,8124.3
2003-04-26,4189225.9,570886.8,9349.9
2003-04-28,3982030.9,547286.0,8650.8
2003-04-29,3867326.3,528026.6,8286.9
2003-04-30,3657806.4,502327.3,7734.3
2003-05-01,3790474.4,515303.3,7911.6
2003-05-02,3537313.4,488318.3,7842.9
2003-05-03,2985192.4,430058.4,6795.6
2003-05-04,3602504.6,487438.2,7369.7
2003-05-05,3518420.3,485711.8,7569.4
2003-05-06,3592712.6,483792.2,7303.9
2003-05-07,3250728.4,442399.6,6700.9
2003-05-08,2764843.6,403160.6,6284.9
2003-05-09,1552661.9,269646.3,4120.4
2003-05-10,3368400.1,446673.0,6369.5
2003-05-11,1479752.9,240703.9,3473.8
2003-05-12,3075293.6,416284.8,5676.8
2003-05-13,226455.5,40782.9,512.6
2003-05-14,361027.5,68398.6,909.1
2003-05-15,2879676.1,388567.3,6403.6
2003-05-16,3191708.1,414849.0,5505.7
2003-05-17,3084959.0,400755.2,5141.3
2003-05-18,3015783.5,391400.3,4987.6
2003-05-19,1395195.5,230096.5,3164.9
2003-05-20,2077354.5,316004.3,4338.8
2003-05-21,482774.5,87466.6,1129.5
2003-05-22,1196625.6,188841.0,2240.1
2003-05-23,894257.7,158904.1,2017.8
2003-05-24,2533619.0,351841.0,4430.5
2003-05-25,1721238.7,264511.6,3280.3
2003-05-26,2547404.5,349157.9,4145.4
2003-05-27,2377361.5,352013.6,4084.7
2003-05-28,1478949.7,244734.6,3062.4
2003-05-29,1913926.1,279902.5,3408.0
2003-05-30,1958482.7,275396.1,3363.9
2003-05-31,2724581.5,348128.2,4049.1
2003-06-01,1723805.2,247119.7,2881.8
2003-06-02,2595211.7,330687.9,3561.0
2003-06-03,2265891.3,304565.8,3386.1
2003-06-04,910726.2,139650.0,1418.3
2003-06-05,1770224.6,258720.4,2894.4
2003-06-06,2337244.9,312328.7,3300.1
2003-06-07,2438544.6,316633.6,3409.4
2003-06-08,2279788.6,303748.8,3358.5
2003-06-09,1561079.6,230268.2,2639.5
2003-06-10,2200402.5,290232.8,3222.4
2003-06-11,1703761.3,249866.8,2781.9
2003-06-12,1776997.3,257775.3,2814.8
2003-06-13,2059209.0,280408.3,3015.3
2003-06-14,1003330.7,160429.6,1832.2
2003-06-15,1890714.9,262221.8,2766.6
2003-06-16,2162252.5,287873.9,2877.7
2003-06-17,1846436.6,282131.7,2815.0
2003-06-18,2059122.9,280599.0,3054.4
2003-06-19,1501423.3,231905.2,2623.1
2003-06-20,1605349.1,236622.6,2546.3
2003-06-21,603706.5,106860.3,1050.2
2003-06-22,2166792.5,288411.0,2999.9
2003-06-24,2159174.2,304872.6,3163.7
2003-06-25,637042.8,109766.6,1240.7
2003-06-26,368810.2,74082.2,760.8
2003-06-27,1245882.4,200704.1,2208.3
2003-06-28,838025.6,136748.8,1209.3
2003-06-29,1387913.9,213665.3,2379.8
2003-06-30,745304.8,125687.4,1344.0
2003-07-01,2410664.2,305081.2,3310.9
2003-07-02,2110625.9,284289.0,3156.1
2003-07-03,2511922.2,317516.3,3505.2
2003-07-04,2410663.1,311208.1,3431.9
2003-07-05,2255450.5,291601.1,3466.2
2003-07-07,697267.4,135400.3,1463.4
2003-07-08,2291932.3,309112.3,3194.9
2003-07-10,2376384.6,317037.4,3472.8
2003-07-11,2556977.7,336687.3,4165.0
2003-07-12,2596945.9,332204.6,3658.5
2003-07-14,2491140.4,351282.9,3713.0
2003-07-16,2670691.2,357988.8,4166.6
2003-07-17,747793.9,129074.8,1541.6
2003-07-18,1706353.6,276178.8,3047.2
2003-07-19,991815.1,171973.5,2017.2
2003-07-20,2208969.8,299425.9,3129.0
2003-07-21,2553623.3,344994.5,4048.0
2003-07-22,2744645.0,361154.2,4212.5
2003-07-23,2558765.7,350483.5,4001.0
2003-07-24,2863708.3,374670.6,4319.4
2003-07-25,2635855.0,362452.4,4587.7
2003-07-26,2951291.0,392139.0,5175.3
2003-07-27,2319605.6,328463.9,4299.9
2003-07-28,2025642.3,304888.7,4183.6
2003-07-29,2645991.1,374848.9,5148.0
2003-07-30,2111332.9,312785.1,4340.8
2003-07-31,3005033.6,431288.5,5779.3
2003-08-01,1962644.4,296019.2,3968.9
2003-08-04,2115133.8,336123.6,4335.6
2003-08-05,2497348.8,376740.1,5167.5
2003-08-06,3235429.5,458903.8,6774.0
2003-08-07,3419730.3,457469.1,6034.3
2003-08-08,3595344.8,481872.9,7012.7
2003-08-11,2026292.5,343913.4,5058.3
2003-08-12,3600508.8,483436.6,7445.1
2003-08-13,3855264.6,538770.7,7625.8
2003-08-14,2274906.4,370207.0,5644.2
2003-08-15,3775093.6,516876.7,7996.5
2003-08-16,3319328.6,475997.7,7626.1
2003-08-18,2062477.8,342704.0,5268.8
2003-08-19,3747489.5,522883.6,8429.5
2003-08-20,4385675.3,584263.5,9376.7
2003-08-21,4359125.6,598108.4,9046.5
2003-08-22,4704900.1,648894.4,10323.1
2003-08-23,4678014.7,631245.8,10159.5
2003-08-24,3900260.4,554124.1,8951.8
2003-08-25,2359814.0,378864.8,6829.0
2003-08-26,4308948.6,609368.0,10202.4
2003-08-27,4909668.1,692343.1,11678.6
2003-08-28,4852510.2,657970.4,12380.3
2003-08-29,4666369.7,663802.0,12681.1
2003-08-30,3885401.1,589740.7,10903.9
2003-08-31,4831377.7,684596.1,12163.8
2003-09-01,5141681.5,717961.5,13206.6
2003-09-02,4782676.0,689268.7,13592.2
2003-09-03,3417487.0,547331.7,10431.9
2003-09-04,3405700.8,524391.5,10848.2
2003-09-05,1973240.8,332052.5,5705.8
2003-09-06,4522560.6,707346.4,13228.0
2003-09-09,5986744.2,854151.9,18920.0
2003-09-10,4533105.9,681235.6,14141.7
2003-09-11,3721888.5,596212.0,11227.1
2003-09-15,3106125.7,506028.8,10097.6
2003-09-16,3784567.9,592235.4,12057.6
2003-09-17,5128341.0,780818.6,16131.0
2003-09-18,5107178.4,763118.7,16202.4
2003-09-19,6709692.0,948819.1,19589.6
2003-09-20,5903153.9,857055.9,18137.4
2003-09-21,3435813.6,547225.8,12203.9
2003-09-22,4701457.5,730596.6,15959.0
2003-09-23,7001415.7,1012327.8,21927.0
2003-09-24,4105066.9,688041.5,14915.2
2003-09-25,7205244.3,1042557.2,21778.6
2003-09-26,6072864.4,904669.6,20050.8
2003-09-27,7045890.1,1042026.4,22166.0
2003-09-29,5438792.7,882637.0,21364.1
2003-09-30,4754852.7,769592.3,19233.4
2003-10-01,3608592.3,613595.3,14050.9
2003-10-02,7933799.9,1152026.8,25737.1
2003-10-03,4507661.1,709295.9,15950.2
2003-10-04,4445944.1,711767.4,17408.4
2003-10-06,5551047.7,869139.3,21526.9
2003-10-07,4820290.7,755439.0,19259.5
2003-10-08,5573530.4,902440.3,23257.2
2003-10-09,6759159.7,1043484.5,22383.5
2003-10-10,7609379.9,1124463.8,27094.2
2003-10-11,5858323.5,905310.2,22422.5
2003-10-12,8560351.5,1238373.2,30654.5
2003-10-13,7541347.9,1123585.1,28268.2
2003-10-14,7008713.7,1041958.4,26388.3
2003-10-15,8120698.2,1203771.0,31922.0
2003-10-16,8364853.3,1231249.9,29292.5
2003-10-17,5853539.8,905022.0,21925.7
2003-10-18,5000310.5,774922.1,18218.0
2003-10-19,9323756.8,1356986.4,32544.1
2003-10-20,7117772.7,1085185.0,25101.7
2003-10-21,9377784.1,1363341.1,32623.1
2003-10-22,8688729.3,1289548.7,32123.9
2003-10-23,5360445.9,865439.5,21984.0
2003-10-24,9261355.6,1377465.0,31070.3
2003-10-25,5431699.8,845041.4,22302.6
2003-10-26,9889320.8,1415512.9,33395.0
2003-10-27,8635951.2,1276672.1,29600.1
2003-10-28,8335152.7,1269208.2,31892.8
2003-10-29,8999992.9,1329805.6,33198.1
2003-10-30,9684895.4,1386367.4,32564.1
2003-10-31,6810053.5,1019676.0,24244.9
2003-11-01,9828604.9,1416498.1,34782.9
2003-11-02,10242796.4,1473757.9,36770.9
2003-11-03,9742754.3,1352357.6,33455.6
2003-11-04,8378218.3,1242365.0,32109.9
2003-11-05,10032547.7,1471471.3,37514.6
2003-11-06,6635682.9,1014041.8,26486.9
2003-11-07,8413096.8,1249803.7,32176.5
2003-11-08,9883491.9,1435351.6,35753.2
2003-11-09,9433897.4,1413211.9,36820.1
2003-11-10,4313473.9,692362.4,17622.8
2003-11-11,7538302.6,1194645.9,31535.9
2003-11-12,7529715.7,1225546.4,36741.7
2003-11-13,7558170.8,1176533.8,31491.2
2003-11-14,11868796.5,1787325.2,50234.9
2003-11-15,7774558.3,1218511.3,33020.3
2003-11-16,9728683.2,1466873.9,38540.2
2003-11-17,10786943.3,1610548.0,42197.4
2003-11-18,7634689.8,1167734.1,31460.9
2003-11-19,9592960.5,1446957.7,38514.9
2003-11-20,10398255.3,1569298.4,41824.0
2003-11-21,6963231.4,1088797.3,29720.7
2003-11-22,10151989.1,1514885.0,40047.4
2003-11-23,9186578.6,1360017.5,33878.3
2003-11-24,10722860.2,1618407.0,41627.5
2003-11-25,7077696.1,1093265.0,28396.4
2003-11-27,11383299.7,1705260.5,44569.5
2003-11-28,11068948.8,1642278.4,43574.3
2003-11-29,4484584.0,756548.3,21443.4
2003-11-30,10107230.2,1558252.0,43132.0
2003-12-01,8745153.8,1379187.9,35892.3
2003-12-02,6646649.7,1061467.5,26887.7
2003-12-03,9890351.9,1522131.3,39762.7
2003-12-04,8826575.0,1382031.7,36007.6
2003-12-05,9815991.7,1494553.3,39858.7
2003-12-06,11302555.4,1685502.7,43527.4
2003-12-07,10915573.4,1620716.8,41957.0
2003-12-08,9063120.7,1384046.9,34698.0
2003-12-09,5760411.0,928382.5,24841.8
2003-12-10,9724769.5,1452865.1,36724.0
2003-12-11,6411532.2,1016527.8,26460.5
2003-12-12,11343133.1,1691225.1,44454.0
2003-12-13,6078013.3,984489.3,26814.1
2003-12-14,9782122.0,1464801.0,37269.8
2003-12-15,11317815.3,1675837.4,42834.8
2003-12-16,8958374.7,1396877.9,38884.7
2003-12-17,11955464.0,1762370.7,45458.9
2003-12-18,10152829.7,1540295.8,40821.1
2003-12-19,11651458.9,1712785.4,45425.8
2003-12-20,11450356.1,1695056.5,45346.6
2003-12-21,6160546.8,970871.7,26013.2
2003-12-22,11319469.8,1761338.3,48326.6
2003-12-23,12101056.2,1886475.1,53206.9
2003-12-27,11560684.3,1777659.0,46867.3
2003-12-28,11842636.2,1834052.1,49854.8
2003-12-29,9756724.5,1517978.0,40421.6
2003-12-30,12139959.9,1839524.5,48416.9
2003-12-31,12337440.2,1855969.8,50305.4
